(53236) = 1999 CC118 = 2000 QV68

Discovered at Socorro on 1999-02-12 by LINEAR.

Orbit

Orbit type: Main Belt

Note: WebGL enabled browser required.

epoch2024-03-31.0
epoch JD2460400.5
perihelion date2020-10-29.99886
perihelion JD2459152.49886
argument of perihelion (°)293.77232
ascending node (°)310.63083
inclination (°)13.05432
eccentricity0.2050923
perihelion distance (AU)2.0698045
Tisserand w.r.t. Jupiter3.3
ΔV w.r.t. Earth (km/sec)9.9
semimajor axis (AU)2.6038300
mean anomaly (°)292.75202
mean daily motion (°/day)0.23457670
aphelion distance (AU)3.138
period (years)4.2
P-vector [x]-0.41408692
P-vector [y]-0.73108214
P-vector [z]-0.54226464
Q-vector [x]0.89395013
Q-vector [y]-0.43882734
Q-vector [z]-0.09101502
absolute magnitude14.59
phase slope0.15
uncertainty0
referenceMPEC 2024-F28
observations used1830
oppositions20
arc length (days)9166
first opposition used1999
last opposition used2024
residual rms (arc-secs)0.64
perturbers coarse indicatorM-v
perturbers precise indicator003Ek
first observation date used1999-02-12.0
last observation date used2024-03-18.0
computer nameMPCLINUX
JD of orbit computation2456966.933027
perihelion JD uncertainty (days)1.3360E-04
argument of perihelion uncertainty (°)2.9787E-05
ascending node uncertainty (°)2.0455E-05
inclination uncertainty (°)6.5876E-06
eccentricity uncertainty 4.2506E-08
perihelion distance uncertainty (AU)1.0958E-07
Minimum Orbit Intersection Distances (in AU)
for orbit epoch: 2460400.5, reference: E2024-GD4
Mercury1.61205
Venus1.36863
Earth1.09506
Mars0.65806
Jupiter2.09098
Saturn6.03098
Uranus15.8066
Neptune26.8311

Observations

1862 total observations over interval: 1999 02 12.45668 – 2024 03 18.110121
These data are available for download (format description).

Date (UT) J2000 RA J2000 Dec Magn Location Ref
1999 02 12.45668 11 21 21.00 -07 39 45.9 18.0   704 – Lincoln Laboratory ETS, New Mexico MPS 4012
1999 02 12.47410 11 21 20.27 -07 39 50.5 18.5   704 – Lincoln Laboratory ETS, New Mexico MPS 4012
1999 02 12.49154 11 21 19.40 -07 39 55.4 18.3   704 – Lincoln Laboratory ETS, New Mexico MPS 4012
1999 02 12.50943 11 21 18.65 -07 39 59.6 18.3   704 – Lincoln Laboratory ETS, New Mexico MPS 4012
1999 02 16.40884 11 18 20.24 -07 54 44.8 18.3   704 – Lincoln Laboratory ETS, New Mexico MPS 4012
1999 02 16.42971 11 18 19.14 -07 54 48.7 19.0   704 – Lincoln Laboratory ETS, New Mexico MPS 4012
1999 02 16.45069 11 18 18.05 -07 54 53.7 19.2   704 – Lincoln Laboratory ETS, New Mexico MPS 4012
1999 02 16.47198 11 18 17.07 -07 54 57.8 19.2   704 – Lincoln Laboratory ETS, New Mexico MPS 4012
1999 02 16.49283 11 18 15.90 -07 55 02.7 19.1   704 – Lincoln Laboratory ETS, New Mexico MPS 4012
1999 02 18.64594 11 16 27.82 -08 01 53.1 18.8 V 566 – Haleakala-NEAT/GEODSS MPS 4012
1999 02 18.65621 11 16 27.30 -08 01 54.9 18.4 V 566 – Haleakala-NEAT/GEODSS MPS 4012
1999 02 18.66698 11 16 26.71 -08 01 56.9 18.6 V 566 – Haleakala-NEAT/GEODSS MPS 4012
1999 04 16.14116 10 28 09.49 -06 59 55.4 18.2 R 699 – Lowell Observatory-LONEOS MPS 17525
1999 04 16.17188 10 28 08.97 -06 59 48.6   699 – Lowell Observatory-LONEOS MPS 17525
1999 04 16.20244 10 28 08.41 -06 59 46.0   699 – Lowell Observatory-LONEOS MPS 17525
2000 08 03.30616 23 07 52.94 +03 24 09.9 18.5   704 – Lincoln Laboratory ETS, New Mexico MPS 18163
2000 08 03.32038 23 07 52.38 +03 24 14.2 18.6   704 – Lincoln Laboratory ETS, New Mexico MPS 18163
2000 08 03.33460 23 07 51.84 +03 24 15.5 19.1   704 – Lincoln Laboratory ETS, New Mexico MPS 18163
2000 08 03.34885 23 07 51.17 +03 24 19.0 18.4   704 – Lincoln Laboratory ETS, New Mexico MPS 18163
2000 08 03.36432 23 07 50.57 +03 24 22.3 19.0   704 – Lincoln Laboratory ETS, New Mexico MPS 18163
2000 08 24.01882 22 50 09.18 +03 54 33.6 18.5   012 – Uccle MPS 18163
2000 08 24.02887 22 50 08.55 +03 54 32.6   012 – Uccle MPS 18163
2000 08 24.99809 22 49 10.19 +03 54 09.8 19.5   012 – Uccle MPS 18163
2000 08 25.01144 22 49 09.39 +03 54 08.7   012 – Uccle MPS 18163
2000 08 28.73696 22 45 22.26 +03 51 21.3 18.4 V 300 – Bisei Spaceguard Center-BATTeRS MPS 18163
2000 08 28.76181 22 45 20.71 +03 51 19.8 18.3 V 300 – Bisei Spaceguard Center-BATTeRS MPS 18163
2000 08 29.56593 22 44 31.97 +03 50 27.3 17.9 V 300 – Bisei Spaceguard Center-BATTeRS MPS 18163
2000 08 29.59309 22 44 30.08 +03 50 25.3 17.9 V 300 – Bisei Spaceguard Center-BATTeRS MPS 18163
2000 08 31.30409 22 42 45.03 +03 48 15.0 18.5   704 – Lincoln Laboratory ETS, New Mexico MPS 18163
2000 08 31.31728 22 42 44.16 +03 48 14.2 18.5   704 – Lincoln Laboratory ETS, New Mexico MPS 18163
2000 08 31.33044 22 42 43.30 +03 48 13.0 18.6   704 – Lincoln Laboratory ETS, New Mexico MPS 18163
2000 08 31.34361 22 42 42.48 +03 48 12.2 18.3   704 – Lincoln Laboratory ETS, New Mexico MPS 18163
2000 08 31.35675 22 42 41.68 +03 48 11.1 18.6   704 – Lincoln Laboratory ETS, New Mexico MPS 18163
2000 09 01.17923 22 41 51.421 +03 47 05.12 16.62 J I02 – Cerro Tololo Observatory, La Serena--2MASS MPS 81258
2000 09 03.25031 22 39 45.21 +03 43 38.6 18.0   704 – Lincoln Laboratory ETS, New Mexico MPS 18163
2000 09 03.26297 22 39 44.39 +03 43 37.2 18.7   704 – Lincoln Laboratory ETS, New Mexico MPS 18163
2000 09 03.27562 22 39 43.59 +03 43 35.6 18.2   704 – Lincoln Laboratory ETS, New Mexico MPS 18163
2000 09 03.28826 22 39 42.80 +03 43 34.8 18.1   704 – Lincoln Laboratory ETS, New Mexico MPS 18163
2000 09 03.30104 22 39 42.00 +03 43 33.5 17.9   704 – Lincoln Laboratory ETS, New Mexico MPS 18163
2000 09 23.18676 22 21 53.51 +02 53 37.1 18.0   704 – Lincoln Laboratory ETS, New Mexico MPS 19019
2000 09 23.20139 22 21 52.87 +02 53 34.7 18.2   704 – Lincoln Laboratory ETS, New Mexico MPS 19019
2000 09 23.21600 22 21 52.15 +02 53 31.3 18.6   704 – Lincoln Laboratory ETS, New Mexico MPS 19019
2000 09 23.23060 22 21 51.52 +02 53 29.1 18.0   704 – Lincoln Laboratory ETS, New Mexico MPS 19019
2000 09 23.24521 22 21 50.88 +02 53 27.1 18.1   704 – Lincoln Laboratory ETS, New Mexico MPS 19019
2000 09 26.18630 22 19 49.82 +02 44 57.5 19.0   704 – Lincoln Laboratory ETS, New Mexico MPS 19019
2000 09 26.20179 22 19 49.28 +02 44 53.6 19.1   704 – Lincoln Laboratory ETS, New Mexico MPS 19019
2000 09 26.21727 22 19 48.67 +02 44 50.5 18.9   704 – Lincoln Laboratory ETS, New Mexico MPS 19019
2000 09 26.23321 22 19 48.01 +02 44 48.2 19.1   704 – Lincoln Laboratory ETS, New Mexico MPS 19019
2000 09 26.24885 22 19 47.29 +02 44 45.8 19.2   704 – Lincoln Laboratory ETS, New Mexico MPS 19019
2000 09 28.18855 22 18 34.62 +02 39 12.2 18.5   704 – Lincoln Laboratory ETS, New Mexico MPS 19019
2000 09 28.20370 22 18 33.94 +02 39 08.3 18.8   704 – Lincoln Laboratory ETS, New Mexico MPS 19019
2000 09 28.21885 22 18 33.44 +02 39 06.6 19.0   704 – Lincoln Laboratory ETS, New Mexico MPS 19019
2000 09 28.23399 22 18 32.83 +02 39 05.1 19.2   704 – Lincoln Laboratory ETS, New Mexico MPS 19019
2000 09 28.24914 22 18 32.31 +02 39 01.8 19.2   704 – Lincoln Laboratory ETS, New Mexico MPS 19019
2000 09 30.16516 22 17 26.14 +02 33 39.3 18.5   704 – Lincoln Laboratory ETS, New Mexico MPS 19019
2000 09 30.17986 22 17 25.66 +02 33 35.6 18.9   704 – Lincoln Laboratory ETS, New Mexico MPS 19019
2000 09 30.19455 22 17 25.20 +02 33 35.0 19.1   704 – Lincoln Laboratory ETS, New Mexico MPS 19019
2000 09 30.20926 22 17 24.62 +02 33 32.1 19.0   704 – Lincoln Laboratory ETS, New Mexico MPS 19019
2000 09 30.22394 22 17 24.15 +02 33 28.8 19.3   704 – Lincoln Laboratory ETS, New Mexico MPS 19019
2000 10 03.18025 22 15 53.45 +02 25 27.3 18.1   704 – Lincoln Laboratory ETS, New Mexico MPS 19019
2000 10 03.19545 22 15 53.00 +02 25 25.2 18.9   704 – Lincoln Laboratory ETS, New Mexico MPS 19019
2000 10 03.21064 22 15 52.57 +02 25 22.4 18.9   704 – Lincoln Laboratory ETS, New Mexico MPS 19019
2000 10 03.22594 22 15 52.12 +02 25 19.8 19.3   704 – Lincoln Laboratory ETS, New Mexico MPS 19019
2000 10 03.24124 22 15 51.69 +02 25 17.5 18.4   704 – Lincoln Laboratory ETS, New Mexico MPS 19019
2000 10 06.27008 22 14 33.60 +02 17 30.7 19.7   608 – Haleakala-AMOS MPS 19019
2000 10 06.28100 22 14 33.30 +02 17 29.9 19.1   608 – Haleakala-AMOS MPS 19019
2000 10 06.29149 22 14 33.01 +02 17 28.3 20.0   608 – Haleakala-AMOS MPS 19019
2000 11 19.09458 22 21 49.99 +01 58 49.9 18.7   704 – Lincoln Laboratory ETS, New Mexico MPS 22195
2000 11 19.10939 22 21 50.49 +01 58 52.6 19.4   704 – Lincoln Laboratory ETS, New Mexico MPS 22195
2000 11 19.12389 22 21 51.16 +01 58 52.7 20.0   704 – Lincoln Laboratory ETS, New Mexico MPS 22195
2000 11 19.15329 22 21 52.14 +01 58 58.1 19.9   704 – Lincoln Laboratory ETS, New Mexico MPS 22195
2001 10 25.36113 04 31 08.31 +38 46 37.9 19.3   704 – Lincoln Laboratory ETS, New Mexico MPS 38914
2001 10 25.37807 04 31 07.64 +38 46 39.4 20.3   704 – Lincoln Laboratory ETS, New Mexico MPS 38914
2001 10 25.41206 04 31 06.20 +38 46 43.3 19.8   704 – Lincoln Laboratory ETS, New Mexico MPS 38914
2001 10 25.42842 04 31 05.52 +38 46 45.4 19.5   704 – Lincoln Laboratory ETS, New Mexico MPS 38914
2001 12 09.22332 03 45 52.78 +37 08 09.9 19.3   704 – Lincoln Laboratory ETS, New Mexico MPS 42996
2001 12 09.23942 03 45 51.79 +37 08 05.3 19.3   704 – Lincoln Laboratory ETS, New Mexico MPS 42996
2001 12 09.25458 03 45 50.90 +37 07 59.1 19.3   704 – Lincoln Laboratory ETS, New Mexico MPS 42996
2001 12 09.27004 03 45 49.91 +37 07 54.2 19.9   704 – Lincoln Laboratory ETS, New Mexico MPS 42996
2001 12 09.28527 03 45 48.93 +37 07 48.7 19.5   704 – Lincoln Laboratory ETS, New Mexico MPS 42996
2001 12 22.22430 03 34 46.01 +35 43 57.7 19.4   704 – Lincoln Laboratory ETS, New Mexico MPS 42996
2001 12 22.23928 03 34 45.38 +35 43 50.9 19.6   704 – Lincoln Laboratory ETS, New Mexico MPS 42996
2001 12 22.25464 03 34 44.67 +35 43 45.6 19.4   704 – Lincoln Laboratory ETS, New Mexico MPS 42996
2001 12 22.28476 03 34 43.36 +35 43 33.3 19.5   704 – Lincoln Laboratory ETS, New Mexico MPS 42996
2003 01 01.44221 10 12 47.89 +09 35 20.8 19.6   704 – Lincoln Laboratory ETS, New Mexico MPS 69541
